Flag for South Korea Weather past 2 weeks in Incheon, South Korea

Now
25 °F

Sunny.


Feels Like: 18 °F
Forecast: 17 / 42 °F
Wind: 6 mph from Northwest

Location: Incheon International Airport

Current Time: Dec 18, 2014 at 4:52:44 PM

Latest Report: Dec 18, 2014 at 4:30 PM


Visibility: 10 mi

Pressure: 30.54 "Hg

Humidity: 33%

Dew point: 0 °F

Location of IncheonLocation

Historic Weather in Incheon — Graph

°F

Incheon temperature yesterday

Maximum temperature yesterday: 23 °F (at 12:00 PM)
Minimum temperature yesterday: 16 °F (at 4:00 AM)
Average temperature yesterday: 19 °F

Past Weeks' High & Low Weather Summary

 TemperatureHumidityPressure
High41 °F (Dec 10, 5:30 PM)100% (Dec 8, 2:30 AM)30.63 "Hg (Dec 8, 2:30 AM)
Low14 °F (Dec 18, 4:00 AM)23% (Dec 9, 2:00 PM)30.01 "Hg (Dec 16, 12:30 AM)
Average26 °F56%30.29 "Hg
* Reported Dec 3 3:00 PM — Dec 18 3:30 PM, Incheon, Weather by CustomWeather, © 2014

Note: Actual official high and low records may vary slightly from our data, if they occured in-between our weather recording intervals... More about our weather records

Advertising

Incheon weather history for previous 24 hours

 ConditionsComfort  
Time TempWeatherWind HumidityBarometerVisibility
3:30 PM
Dec 18
25 °FSunny.7 mph30%30.54 "Hg10 mi
3:00 PM25 °FSunny.8 mph28%30.54 "Hg10 mi
2:30 PM25 °FSunny.12 mph30%30.54 "Hg10 mi
2:00 PM25 °FSunny.10 mph30%30.54 "Hg10 mi
1:30 PM25 °FSunny.12 mph28%30.54 "Hg10 mi
12:30 PM23 °FSunny.13 mph33%30.57 "Hg10 mi
12:00 PM23 °FSunny.10 mph33%30.60 "Hg10 mi
11:30 AM21 °FSunny.13 mph42%30.60 "Hg10 mi
11:00 AM19 °FSunny.12 mph42%30.60 "Hg10 mi
10:30 AM18 °FSunny.12 mph41%30.60 "Hg10 mi
10:00 AM18 °FSunny.9 mph35%30.60 "Hg10 mi
9:30 AM18 °FSunny.9 mph32%30.60 "Hg10 mi
9:00 AM16 °FSunny.8 mph31%30.57 "Hg10 mi
8:30 AM14 °FClear.9 mph31%30.57 "Hg10 mi
8:00 AM14 °FClear.13 mph31%30.54 "Hg10 mi
7:30 AM14 °FClear.15 mph31%30.54 "Hg10 mi
7:00 AM14 °FPassing clouds.14 mph34%30.51 "HgN/A
6:30 AM14 °FPassing clouds.14 mph37%30.51 "HgN/A
6:00 AM14 °FPassing clouds.14 mph31%30.48 "HgN/A
5:30 AM14 °FPassing clouds.15 mph37%30.48 "HgN/A
5:00 AM14 °FPassing clouds.14 mph31%30.48 "HgN/A
4:30 AM14 °FPassing clouds.14 mph34%30.48 "HgN/A
4:00 AM14 °FPassing clouds.14 mph44%30.48 "HgN/A
3:30 AM16 °FPassing clouds.14 mph41%30.48 "HgN/A
3:00 AM16 °FPassing clouds.15 mph41%30.48 "HgN/A
2:30 AM16 °FPassing clouds.16 mph37%30.45 "HgN/A
2:00 AM16 °FPassing clouds.22 mph37%30.45 "HgN/A
1:30 AM16 °FPassing clouds.21 mph34%30.45 "HgN/A
1:00 AM18 °FPassing clouds.16 mph32%30.45 "HgN/A
12:30 AM18 °FPassing clouds.20 mph32%30.42 "HgN/A
12:00 AM18 °FPassing clouds.20 mph32%30.42 "HgN/A
11:30 PM
Dec 17
18 °FPassing clouds.17 mph29%30.42 "HgN/A
11:00 PM18 °FPassing clouds.20 mph35%30.42 "HgN/A
10:30 PM18 °FPassing clouds.18 mph35%30.42 "HgN/A
10:00 PM18 °FPassing clouds.10 mph45%30.39 "HgN/A
9:30 PM18 °FPassing clouds.14 mph41%30.39 "HgN/A
9:00 PM19 °FPassing clouds.16 mph35%30.39 "HgN/A
8:30 PM19 °FPassing clouds.23 mph38%30.39 "HgN/A
8:00 PM19 °FPassing clouds.22 mph38%30.39 "HgN/A
7:30 PM19 °FPassing clouds.28 mph42%30.36 "HgN/A
7:00 PM19 °FPassing clouds.24 mph42%30.36 "HgN/A
6:30 PM19 °FPassing clouds.25 mph45%30.36 "HgN/A
6:00 PM19 °FPassing clouds.25 mph45%30.33 "HgN/A
5:30 PM19 °FPassing clouds.25 mph49%30.33 "HgN/A
5:00 PM19 °FPassing clouds.25 mph49%30.30 "HgN/A
4:30 PM21 °FScattered clouds.24 mph42%30.30 "HgN/A
4:00 PM21 °FScattered clouds.24 mph38%30.30 "HgN/A
Weather by CustomWeather, © 2014

See weather overviewHow to use our weather pages